Weather History for North Las Vegas, NV

Change the Weather History Date:

Tuesday, February 19, 2013

  Actual Average Record
Temperature  
Mean Temperature 50 °F -  
Max Temperature 62 °F 62 °F 77 °F (2014)
Min Temperature 39 °F 41 °F 15 °F (1952)
Degree Days  
Heating Degree Days 14    
Moisture  
Dew Point 21 °F    
Average Humidity 34    
Maximum Humidity 45    
Minimum Humidity 17    
Precipitation  
Precipitation 0.00 in - - ()
Sea Level Pressure  
Sea Level Pressure 29.71 in    
Wind  
Wind Speed 7 mph (SW)    
Max Wind Speed 20 mph    
Max Gust Speed 25 mph    
Visibility 10 miles    
Events      
Averages and records for this station are not official NWS values.
T = Trace of Precipitation, MM = Missing Value Source: NWS Daily Summary

Daily Weather History Graph

Daily Weather History Graph

Search for Another Location

Airport:

Trip Planner

Search our weather history database for the weather conditions in past years. The results will help you decide how hot, cold, wet, or windy it might be!

Date:

Astronomy

Feb. 19, 2013 Rise Set
Actual Time 6:23 AM PST 5:26 PM PST
Civil Twilight 5:57 AM PST 5:52 PM PST
Nautical Twilight 5:27 AM PST 6:22 PM PST
Astronomical Twilight 4:57 AM PST 6:52 PM PST
Moon 12:06 PM PST (2/19) 1:53 AM PST (2/19)
Length of Visible Light 11h 55m
Length of Day
11h 03m
Waxing Gibbous, 68% of the Moon is Illuminated
Feb 19
Waxing Gibbous
Feb 25
Full
Mar 4
Last Quarter
Mar 11
New
Mar 19
First Quarter

Hourly Weather History & Observations

Time (PST) Temp. Windchill Dew Point Humidity Pressure Visibility Wind Dir Wind Speed Gust Speed Precip Events Conditions
12:53 AM 43.0 °F 39.5 °F 19.0 °F 38% 29.89 in 10.0 mi WNW 5.8 mph - N/A   Clear
1:53 AM 42.1 °F 40.2 °F 19.9 °F 41% 29.87 in 10.0 mi WNW 3.5 mph - N/A   Clear
2:53 AM 42.1 °F 40.2 °F 19.0 °F 40% 29.84 in 10.0 mi NW 3.5 mph - N/A   Clear
3:53 AM 39.9 °F - 19.0 °F 43% 29.83 in 10.0 mi Calm Calm - N/A   Clear
4:53 AM 39.9 °F 37.8 °F 19.9 °F 45% 29.83 in 10.0 mi NNW 3.5 mph - N/A   Clear
5:53 AM 39.9 °F 37.8 °F 19.9 °F 45% 29.82 in 10.0 mi West 3.5 mph - N/A   Clear
6:53 AM 41.0 °F 37.1 °F 19.9 °F 43% 29.82 in 10.0 mi WNW 5.8 mph - N/A   Clear
7:53 AM 48.0 °F - 19.0 °F 32% 29.82 in 10.0 mi ENE 4.6 mph - N/A   Clear
8:53 AM 51.1 °F - 18.0 °F 27% 29.80 in 10.0 mi ESE 8.1 mph - N/A   Clear
10:53 AM 55.0 °F - 19.0 °F 24% 29.75 in 10.0 mi East 4.6 mph - N/A   Clear
11:53 AM 59.0 °F - 19.9 °F 22% 29.70 in 10.0 mi ESE 6.9 mph - N/A   Clear
12:53 PM 61.0 °F - 21.0 °F 21% 29.65 in 10.0 mi SE 12.7 mph 17.3 mph N/A   Clear
1:53 PM 62.1 °F - 19.9 °F 20% 29.62 in 10.0 mi SW 13.8 mph 23.0 mph N/A   Clear
2:53 PM 61.0 °F - 16.0 °F 17% 29.60 in 10.0 mi SW 17.3 mph 25.3 mph N/A   Clear
4:53 PM 55.9 °F - 23.0 °F 28% 29.61 in 10.0 mi SW 19.6 mph - N/A   Scattered Clouds
5:53 PM 54.0 °F - 25.0 °F 33% 29.60 in 10.0 mi WSW 19.6 mph - N/A   Clear
6:53 PM 53.1 °F - 25.0 °F 34% 29.62 in 10.0 mi SSW 10.4 mph - N/A   Clear
7:53 PM 52.0 °F - 25.0 °F 35% 29.59 in 10.0 mi SW 16.1 mph - N/A   Partly Cloudy
8:53 PM 51.1 °F - 26.1 °F 38% 29.58 in 10.0 mi South 11.5 mph - N/A   Partly Cloudy
9:53 PM 50.0 °F - 26.1 °F 39% 29.59 in 10.0 mi SW 9.2 mph 19.6 mph N/A   Partly Cloudy
10:53 PM 48.9 °F - 26.1 °F 41% 29.57 in 10.0 mi WSW 13.8 mph - N/A   Scattered Clouds
11:53 PM 48.9 °F - 25.0 °F 39% 29.56 in 10.0 mi SW 11.5 mph - N/A   Overcast